Wetbulb
58.56 58.72 58.81 58.60 58.58 58.49 58.44 58.46 58.96 58.31 57.70 56.51 54.66 54.43 54.83 54.64 51.22 42.54 39.64 45.81 50.40 55.85 53.09 44.29 41.78 41.80 42.22 39.65 39.58 36.62 31.46 27.90 29.19 30.48 31.94 34.40 33.88 35.83 36.09 34.90 34.73 37.19 38.83 40.98 42.32
58.84 58.36 58.34 58.24 58.30 58.24 58.26 58.64 58.60 57.97 57.37 56.78 54.18 54.29 54.29 53.51 41.15 38.65 46.05 54.52 55.05 55.66 43.00 40.36 38.22 39.96 37.30 36.64 36.49 34.06 29.45 31.37 30.33 29.69 29.98 32.85 33.32 33.47 33.99 33.46 34.26 36.08 39.97 40.87 42.26
58.66 58.26 58.16 58.28 57.85 58.01 58.02 58.39 57.81 57.43 56.93 56.62 53.78 54.21 54.03 49.03 37.69 36.73 51.64 54.38 54.76 51.92 42.90 41.38 39.52 38.62 34.58 35.26 33.47 32.26 30.08 31.71 31.09 33.23 32.89 33.02 31.95 33.90 33.24 33.82 35.96 35.64 38.77 39.22 40.14
58.48 58.37 57.99 57.86 58.02 57.74 57.10 57.06 57.17 56.92 56.29 55.86 53.40 54.42 52.82 42.26 30.69 39.30 52.15 53.01 53.42 46.64 42.87 39.14 36.38 33.86 31.91 31.41 34.23 30.24 33.33 33.33 34.36 34.41 33.05 31.70 33.30 32.54 32.30 34.42 35.94 36.48 40.42 39.56 39.15
58.29 57.71 57.33 56.99 56.29 56.49 56.56 56.74 56.87 56.05 55.04 54.50 54.03 54.68 44.89 36.35 35.07 42.75 49.80 47.96 44.77 43.04 39.98 37.59 34.79 33.43 31.08 32.30 32.80 30.85 31.79 34.10 33.61 33.88 32.54 34.60 31.36 31.18 32.37 34.99 35.12 38.81 40.05 39.18 39.07
57.86 57.12 56.93 56.24 56.00 56.21 56.24 56.24 56.42 54.69 53.82 53.11 54.34 53.50 39.53 33.30 41.31 41.70 42.01 44.02 43.15 41.31 38.83 39.09 35.51 35.65 33.79 32.05 30.31 32.18 32.30 31.97 33.65 33.85 33.94 32.05 30.08 31.58 31.39 32.39 32.81 38.33 38.71 38.89 38.97
57.62 56.59 56.12 56.09 55.73 55.79 55.88 55.64 55.99 54.21 53.12 52.30 52.99 43.11 37.54 34.96 40.43 40.83 42.55 41.58 42.20 41.35 38.52 39.59 38.95 35.97 33.39 31.34 34.68 33.11 28.93 31.05 31.65 33.09 32.04 32.44 30.07 30.16 32.85 33.23 32.75 34.42 37.99 38.67 39.04
57.10 55.85 55.74 55.63 55.41 55.38 55.25 55.14 55.95 53.32 53.61 53.08 51.41 39.30 33.32 41.27 39.67 41.38 42.06 41.51 42.93 42.97 40.87 40.02 40.00 37.61 34.70 34.02 35.05 29.91 29.51 25.79 31.41 32.81 32.92 31.06 28.90 32.57 32.56 31.30 33.63 33.50 34.06 37.33 38.84
56.46 55.55 55.41 55.32 55.30 55.52 54.19 55.80 53.82 54.47 53.72 51.99 41.43 37.37 32.39 44.51 38.51 40.24 40.67 39.84 40.99 41.13 41.29 43.51 39.23 33.67 34.38 30.13 27.08 26.76 20.53 25.22 27.88 32.24 30.91 29.53 29.09 33.00 32.60 31.63 32.84 32.99 33.35 34.24 35.84
56.00 55.23 54.90 54.88 55.13 55.22 53.56 54.83 51.70 48.51 43.54 43.49 40.71 37.71 36.72 34.30 37.96 39.74 40.52 41.38 38.91 38.57 38.13 38.39 33.80 28.64 25.34 25.24 19.44 22.22 22.40 25.23 24.30 28.26 29.30 27.86 29.84 34.60 34.10 33.66 33.07 32.98 33.46 33.33 34.53
55.42 54.54 54.32 54.51 54.65 52.46 46.60 43.93 41.08 39.45 36.36 31.53 31.54 32.41 34.28 38.25 39.54 39.51 40.35 39.48 38.95 36.01 28.59 33.45 26.92 21.23 24.00 25.79 26.27 24.79 24.07 23.30 25.62 28.37 26.82 25.29 26.25 31.64 32.89 30.96 30.76 31.31 31.12 32.49 33.86
54.28 53.53 53.46 53.56 54.13 49.44 42.78 37.54 36.36 36.80 31.31 34.27 34.04 33.77 35.27 36.20 35.19 38.20 40.66 34.32 31.32 26.39 32.16 27.98 23.22 28.42 30.39 29.79 28.24 27.39 23.55 21.79 26.74 27.64 25.57 23.62 24.63 30.05 29.57 28.07 28.59 29.92 29.90 30.77 31.76
53.11 53.13 52.77 53.83 52.24 44.45 39.61 38.34 41.80 40.37 31.96 33.93 33.75 33.23 34.42 37.55 33.59 35.21 37.79 33.43 28.58 26.09 25.68 26.32 27.34 32.00 29.99 27.19 26.92 24.59 23.13 21.58 22.57 25.54 23.10 20.48 22.10 25.45 26.83 28.77 29.78 29.17 29.05 29.68 30.57
52.33 52.41 52.89 52.73 46.90 41.54 39.03 42.47 41.99 40.19 24.34 30.67 32.43 34.05 36.73 36.14 32.94 37.81 37.58 34.67 30.06 24.14 27.15 27.09 30.15 29.18 27.79 25.96 25.62 22.93 25.59 25.44 24.00 17.28 12.77 20.07 13.19 22.99 23.64 26.26 27.69 29.36 28.58 28.59 28.56
51.88 51.93 50.80 51.54 42.90 39.97 41.52 43.39 40.95 38.74 14.97 30.85 32.15 37.37 38.27 34.07 33.29 35.53 37.35 34.44 28.16 27.22 25.95 24.70 26.58 26.58 25.30 26.04 27.04 24.19 26.00 24.08 20.90 10.86 12.31 14.66 8.59 20.42 22.83 25.57 27.36 27.98 28.69 28.90 28.68
50.96 51.20 51.77 46.23 42.65 41.91 43.33 40.88 38.51 26.08 14.78 25.13 31.57 31.37 31.03 31.76 32.74 34.39 34.32 35.80 32.60 29.67 28.78 26.40 27.97 26.86 26.35 27.37 27.16 26.49 22.04 20.17 16.81 7.87 6.41 5.94 8.95 18.88 23.02 24.57 25.18 26.67 27.56 29.37 29.25
50.43 49.60 46.40 44.82 39.41 42.97 42.82 37.57 26.41 17.89 26.07 23.22 26.89 31.05 27.12 27.43 30.42 30.75 29.33 26.43 23.81 17.55 14.49 23.47 25.49 27.18 28.17 24.52 26.92 22.83 12.54 6.63 8.88 6.56 9.89 0.36 8.93 19.89 25.08 26.08 25.31 27.17 28.34 28.43 29.14
50.27 47.63 45.44 43.64 42.87 42.56 37.16 30.83 18.42 17.50 18.45 29.21 29.52 29.45 25.64 27.81 26.56 28.39 27.19 22.59 25.99 23.11 13.98 10.60 13.09 19.18 27.69 24.95 21.26 20.84 12.90 9.26 0.86 4.62 8.40 1.18 7.61 22.15 24.92 26.32 26.44 26.64 26.63 28.28 28.46
50.29 44.26 41.85 42.27 43.95 39.90 32.84 19.12 20.97 22.49 28.14 28.02 27.13 19.47 18.86 26.88 23.38 22.57 23.55 21.59 24.95 23.43 16.37 11.83 14.81 25.04 26.97 26.37 23.20 18.92 9.86 17.49 3.13 -6.80 1.08 7.66 14.73 24.12 25.71 22.72 24.93 25.59 26.65 27.33 27.88
44.49 40.93 40.43 41.94 41.72 35.32 26.22 22.43 21.55 29.24 30.87 29.14 20.87 21.51 11.01 14.25 21.08 17.21 19.41 25.77 25.55 26.57 22.77 20.21 11.00 17.74 24.99 25.69 23.46 18.92 20.72 10.97 7.17 1.59 -1.65 5.68 -1.15 15.22 19.72 20.72 22.32 23.80 23.09 23.79 25.68
41.83 35.70 40.84 40.58 36.73 29.34 19.83 17.31 22.17 30.45 31.96 28.32 25.19 24.06 22.19 16.54 20.17 16.60 19.27 26.33 25.79 24.24 25.33 18.61 13.29 14.55 22.24 12.45 12.16 14.37 10.61 11.47 11.02 11.22 3.86 -0.63 10.79 15.60 14.89 12.55 16.23 20.10 21.28 16.97 19.47
36.71 27.09 39.67 37.20 27.34 16.48 14.85 18.73 31.80 30.36 31.38 30.66 29.42 25.60 22.22 22.62 20.78 14.20 21.88 23.94 27.29 25.24 23.01 24.13 19.37 8.33 14.40 19.88 21.22 20.22 14.26 17.09 11.15 4.77 5.05 8.47 11.41 17.58 14.63 11.27 7.45 18.15 20.43 20.40 16.88
29.84 28.44 36.37 34.49 18.37 17.43 27.68 28.68 30.16 29.35 28.80 28.65 27.33 28.99 26.06 17.57 14.35 24.15 25.11 29.30 28.22 26.40 24.10 25.63 11.79 1.87 11.72 15.34 19.11 15.56 19.58 17.58 12.55 15.19 6.52 6.17 12.80 15.90 10.36 11.09 13.84 14.56 23.35 28.79 30.42
27.88 21.26 27.40 28.32 24.05 23.40 20.85 20.48 23.72 30.06 30.10 29.84 28.95 29.62 26.70 17.00 23.05 17.07 25.51 28.48 29.34 28.03 33.32 30.08 20.86 10.43 8.52 9.42 10.23 12.47 17.07 19.37 15.01 3.91 11.56 14.26 19.34 21.65 25.18 21.63 22.52 27.65 24.03 27.39 27.75
27.76 24.15 24.60 17.93 22.11 24.05 24.50 23.97 23.36 22.14 28.79 29.12 24.84 26.25 22.72 14.77 18.81 14.70 24.74 26.25 27.68 31.46 28.47 24.69 10.45 17.52 16.59 13.32 10.64 15.59 14.05 15.00 14.26 14.06 13.52 19.77 16.82 17.32 24.67 25.65 26.52 25.85 24.62 26.23 26.79
28.73 25.90 25.58 27.71 27.05 25.47 24.53 24.31 21.16 22.95 26.17 25.02 21.02 26.59 25.03 15.84 22.14 19.91 24.61 25.17 24.09 24.92 25.73 25.30 9.00 12.41 10.15 20.98 21.62 19.32 21.29 19.10 18.86 20.02 18.71 20.35 19.15 24.60 21.62 16.86 20.51 23.97 25.24 24.23 24.57
32.91 31.98 28.80 28.10 25.28 21.07 21.76 25.37 25.93 27.23 28.11 29.04 27.56 26.95 26.03 27.07 27.20 27.47 28.06 27.96 26.79 24.24 23.39 20.56 11.32 8.39 3.47 11.08 9.31 5.91 12.44 18.94 17.03 10.76 17.40 11.26 15.24 11.95 13.82 17.84 18.84 23.75 24.39 20.42 20.91
MSLP
1020.63 1020.36 1020.08 1019.93 1019.65 1019.33 1019.05 1018.80 1018.53 1018.32 1018.03 1017.80 1017.72 1017.53 1017.26 1017.04 1016.90 1017.08 1017.80 1017.98 1017.39 1016.92 1016.76 1016.66 1016.53 1016.48 1016.55 1017.04 1017.29 1017.65 1018.60 1019.05 1018.28 1018.10 1017.55 1017.43 1017.35 1017.36 1017.41 1017.68 1018.09 1018.53 1018.98 1019.32 1019.62
1020.68 1020.45 1020.19 1019.90 1019.68 1019.47 1019.13 1018.75 1018.46 1018.24 1017.98 1017.82 1017.68 1017.58 1017.35 1017.18 1017.23 1017.77 1017.93 1017.41 1017.01 1016.75 1016.86 1016.83 1016.83 1016.58 1017.18 1017.40 1017.74 1018.06 1018.87 1018.52 1018.27 1018.13 1018.09 1017.99 1017.94 1017.91 1017.96 1018.03 1018.21 1018.68 1019.16 1019.60 1020.06
1020.69 1020.47 1020.19 1019.91 1019.65 1019.43 1019.13 1018.72 1018.41 1018.12 1017.90 1017.74 1017.64 1017.60 1017.41 1017.24 1017.41 1017.90 1017.61 1017.22 1017.00 1016.95 1017.14 1017.00 1016.82 1016.80 1017.32 1017.61 1018.04 1018.31 1018.47 1018.41 1018.56 1018.57 1018.58 1018.56 1018.50 1018.45 1018.30 1018.25 1018.08 1018.43 1019.18 1019.90 1020.42
1020.82 1020.41 1020.18 1019.90 1019.52 1019.25 1018.97 1018.62 1018.35 1017.93 1017.75 1017.64 1017.56 1017.52 1017.41 1017.31 1018.17 1017.84 1017.50 1017.20 1016.95 1016.82 1016.99 1016.89 1016.87 1017.19 1017.61 1017.96 1018.13 1018.42 1018.60 1018.66 1018.83 1018.91 1018.91 1018.95 1019.09 1018.91 1018.67 1018.04 1018.12 1018.30 1018.84 1019.66 1020.23
1020.81 1020.53 1020.14 1019.87 1019.47 1019.16 1018.79 1018.51 1018.20 1017.86 1017.64 1017.64 1017.48 1017.42 1017.60 1017.73 1018.27 1017.85 1017.65 1017.33 1016.98 1017.02 1017.16 1017.16 1017.20 1017.49 1017.92 1018.17 1018.37 1018.56 1018.92 1019.08 1019.16 1019.20 1019.27 1019.31 1019.23 1019.19 1018.44 1018.19 1018.32 1018.58 1019.04 1019.56 1020.00
1020.69 1020.48 1020.15 1019.77 1019.42 1019.04 1018.64 1018.36 1018.07 1017.82 1017.62 1017.60 1017.45 1017.42 1017.67 1018.06 1018.19 1018.06 1017.83 1017.40 1017.49 1017.38 1017.47 1017.48 1017.72 1017.79 1018.25 1018.60 1018.79 1019.03 1019.19 1019.39 1019.43 1019.48 1019.49 1019.60 1019.45 1019.23 1018.20 1018.09 1018.41 1018.80 1019.16 1019.47 1019.77
1020.57 1020.36 1020.04 1019.73 1019.29 1018.90 1018.48 1018.18 1017.91 1017.77 1017.57 1017.45 1017.34 1017.51 1017.88 1018.50 1018.24 1018.12 1017.92 1017.85 1017.76 1017.65 1017.71 1017.83 1017.88 1018.06 1018.55 1019.03 1019.31 1019.33 1019.60 1019.60 1019.69 1019.78 1019.80 1019.87 1019.56 1019.02 1018.16 1018.23 1018.55 1018.97 1019.29 1019.58 1019.66
1020.48 1020.24 1019.94 1019.66 1019.23 1018.78 1018.33 1017.97 1017.72 1017.64 1017.49 1017.33 1017.32 1017.57 1018.27 1018.25 1018.19 1018.19 1018.10 1017.87 1017.83 1017.68 1017.77 1017.92 1017.89 1018.45 1019.14 1019.51 1019.76 1020.11 1020.10 1020.23 1020.12 1020.09 1020.01 1020.02 1019.18 1018.13 1018.09 1018.25 1018.56 1018.96 1019.29 1019.43 1019.45
1020.31 1020.06 1019.95 1019.60 1019.18 1018.67 1018.17 1017.75 1017.63 1017.52 1017.46 1017.32 1017.50 1017.74 1018.51 1018.29 1018.41 1018.62 1018.57 1018.48 1018.21 1018.00 1018.00 1018.04 1018.34 1019.85 1020.07 1020.55 1021.09 1021.50 1021.26 1021.00 1020.73 1020.78 1020.77 1020.47 1019.49 1018.32 1018.31 1018.53 1018.79 1018.94 1019.14 1019.29 1019.26
1020.12 1020.02 1019.90 1019.54 1019.18 1018.57 1018.08 1017.79 1017.64 1017.50 1017.65 1017.50 1017.97 1018.54 1018.81 1019.45 1019.27 1018.99 1018.64 1018.58 1018.61 1018.52 1018.57 1019.03 1019.97 1020.81 1021.64 1021.73 1022.42 1022.26 1022.15 1021.70 1021.69 1021.92 1021.50 1021.16 1019.96 1018.66 1018.66 1018.75 1018.69 1018.85 1018.93 1019.03 1018.97
1020.10 1019.97 1019.88 1019.55 1019.07 1018.54 1018.15 1018.01 1018.64 1018.83 1019.08 1019.65 1019.89 1019.78 1019.70 1019.74 1019.53 1019.23 1019.09 1018.95 1018.99 1019.44 1020.39 1020.77 1021.59 1022.30 1022.69 1022.50 1022.42 1022.46 1022.66 1022.81 1022.54 1022.95 1022.75 1022.08 1021.15 1019.16 1018.74 1018.83 1018.77 1018.93 1019.00 1018.89 1018.69
1020.09 1019.98 1019.83 1019.39 1019.07 1018.78 1018.90 1019.83 1020.58 1020.96 1020.69 1020.24 1020.10 1020.05 1019.99 1020.11 1019.79 1019.54 1019.16 1019.65 1020.25 1021.29 1021.58 1021.92 1022.82 1023.10 1022.94 1022.91 1023.00 1023.24 1023.63 1023.91 1023.70 1023.91 1024.03 1023.36 1021.79 1019.25 1018.89 1018.68 1018.70 1018.92 1018.99 1018.81 1018.48
1020.00 1019.88 1019.67 1019.29 1019.02 1019.31 1020.21 1020.88 1020.95 1020.93 1020.87 1020.74 1020.48 1020.31 1020.34 1020.33 1020.51 1020.30 1020.02 1020.62 1021.54 1022.55 1023.13 1023.15 1023.81 1023.37 1023.34 1023.81 1023.97 1024.48 1024.96 1025.31 1025.84 1025.46 1025.56 1024.97 1022.61 1020.35 1019.09 1018.64 1018.43 1018.64 1018.80 1018.80 1018.57
1019.92 1019.86 1019.62 1019.20 1019.55 1020.26 1020.87 1021.09 1020.99 1021.04 1021.63 1021.34 1020.72 1020.55 1020.51 1020.41 1020.76 1020.57 1020.58 1021.04 1022.20 1023.46 1023.87 1024.39 1024.20 1024.02 1024.18 1024.84 1025.20 1025.77 1026.04 1026.52 1027.14 1027.71 1028.24 1027.34 1025.54 1021.88 1020.13 1019.18 1018.53 1018.42 1018.71 1018.78 1018.79
1019.98 1019.82 1019.75 1019.22 1020.03 1020.71 1021.44 1021.12 1021.00 1020.97 1022.33 1022.12 1021.19 1020.55 1020.76 1021.13 1021.51 1021.02 1020.94 1021.03 1022.67 1023.99 1024.54 1025.52 1025.14 1025.03 1025.32 1025.93 1026.04 1026.68 1026.99 1027.79 1028.82 1029.86 1030.20 1029.48 1028.27 1022.60 1020.82 1019.53 1018.79 1018.64 1018.98 1019.18 1019.38
1020.05 1019.66 1019.79 1020.05 1020.65 1021.36 1021.25 1021.15 1021.27 1022.24 1022.90 1022.54 1022.00 1021.66 1021.83 1022.15 1022.22 1021.97 1021.60 1021.76 1022.97 1023.99 1025.00 1025.92 1025.85 1026.09 1026.35 1026.58 1026.84 1027.34 1028.10 1029.19 1030.31 1031.35 1031.89 1031.17 1029.60 1024.42 1021.45 1019.99 1019.42 1019.18 1019.36 1019.60 1019.83
1020.12 1020.06 1020.24 1020.61 1021.48 1021.39 1021.38 1021.64 1022.84 1023.49 1024.20 1023.75 1023.24 1023.12 1023.46 1023.87 1023.43 1023.39 1023.28 1023.68 1024.39 1025.08 1026.85 1026.82 1027.03 1027.02 1027.03 1027.25 1027.53 1028.13 1029.63 1031.14 1032.05 1032.80 1032.92 1031.79 1030.22 1024.39 1021.45 1020.53 1020.27 1020.18 1020.07 1020.06 1020.20
1020.23 1020.32 1021.18 1021.44 1021.61 1021.54 1021.79 1022.63 1024.21 1024.59 1024.44 1024.07 1024.04 1024.28 1024.89 1025.19 1025.01 1024.69 1024.58 1025.24 1025.30 1025.88 1027.99 1028.72 1028.37 1028.49 1028.25 1028.57 1029.04 1029.78 1030.76 1032.40 1034.11 1035.17 1034.00 1032.34 1029.49 1023.81 1021.63 1020.86 1020.69 1020.78 1020.92 1020.78 1020.89
1020.53 1020.90 1021.47 1021.88 1021.73 1021.79 1022.48 1024.34 1024.42 1024.62 1024.29 1024.32 1024.81 1025.55 1026.23 1026.19 1026.30 1026.00 1025.90 1026.14 1026.00 1026.24 1027.54 1028.82 1029.20 1029.21 1029.11 1029.21 1029.89 1030.69 1031.47 1032.38 1034.17 1036.35 1035.60 1031.96 1028.65 1024.37 1022.21 1021.68 1021.74 1021.71 1021.55 1021.54 1021.65
1020.89 1021.40 1022.13 1022.05 1021.90 1022.28 1023.62 1025.10 1025.33 1025.02 1024.63 1024.37 1025.36 1026.43 1027.66 1027.45 1027.43 1027.07 1026.73 1026.28 1026.44 1026.77 1027.27 1028.93 1029.81 1030.08 1029.75 1029.81 1030.43 1030.90 1032.02 1032.84 1034.13 1035.58 1035.42 1032.77 1030.36 1026.62 1024.61 1024.03 1023.46 1023.16 1023.36 1023.11 1022.96
1021.26 1021.95 1022.25 1022.04 1022.18 1023.11 1025.40 1026.05 1025.85 1025.35 1024.96 1024.81 1025.52 1026.57 1027.43 1028.01 1028.23 1028.17 1027.38 1026.69 1026.25 1026.83 1027.24 1028.71 1029.87 1030.55 1030.20 1030.34 1030.57 1031.58 1032.24 1033.19 1033.96 1034.47 1034.69 1033.69 1029.45 1025.93 1025.61 1025.62 1025.19 1024.58 1024.52 1024.11 1023.90
1022.03 1022.76 1022.57 1022.29 1023.69 1025.94 1026.65 1026.56 1026.36 1025.68 1025.10 1025.05 1025.43 1026.42 1027.21 1028.01 1028.57 1028.64 1027.66 1026.95 1026.37 1026.47 1027.48 1028.49 1029.83 1030.80 1030.56 1030.38 1030.41 1030.88 1031.53 1032.15 1033.71 1034.28 1034.02 1032.87 1028.31 1025.16 1025.42 1025.44 1025.42 1024.76 1024.29 1023.90 1023.46
1023.10 1023.44 1022.86 1022.77 1024.87 1026.96 1027.26 1027.01 1026.70 1026.12 1025.65 1025.64 1025.92 1026.29 1027.38 1028.16 1028.77 1028.30 1027.55 1026.78 1026.59 1026.62 1027.06 1028.05 1029.94 1031.05 1030.89 1031.27 1030.95 1031.02 1031.26 1031.70 1032.42 1032.53 1032.25 1031.44 1026.84 1024.98 1024.78 1025.08 1025.02 1025.07 1024.13 1023.52 1022.71
1023.85 1024.47 1024.45 1024.99 1026.28 1026.70 1027.60 1027.63 1027.17 1026.59 1026.11 1025.92 1026.29 1026.60 1027.46 1028.36 1028.67 1028.39 1027.69 1027.01 1026.80 1026.78 1027.01 1027.71 1029.46 1030.99 1031.12 1030.95 1030.94 1031.21 1030.92 1031.03 1031.51 1032.09 1030.65 1027.37 1025.08 1025.69 1025.17 1025.19 1024.86 1024.32 1024.19 1023.75 1022.86
1024.38 1025.91 1026.26 1026.60 1026.97 1027.02 1026.89 1027.20 1027.19 1026.78 1026.42 1026.25 1026.64 1026.90 1027.58 1028.68 1028.82 1028.67 1028.06 1027.52 1027.26 1027.11 1027.48 1028.42 1029.97 1030.76 1030.71 1030.71 1030.95 1030.30 1030.14 1030.36 1030.40 1029.67 1029.81 1024.03 1025.40 1025.90 1025.17 1025.35 1025.23 1024.94 1024.24 1023.42 1022.97
1024.56 1025.51 1026.56 1027.11 1027.03 1026.90 1027.03 1027.08 1026.83 1026.65 1026.43 1026.57 1026.74 1026.91 1027.41 1027.89 1027.84 1027.93 1028.03 1028.00 1027.73 1027.96 1028.32 1029.18 1030.28 1031.36 1031.14 1030.45 1030.08 1029.26 1029.04 1028.65 1028.21 1028.23 1027.43 1026.44 1025.15 1025.67 1026.04 1025.94 1025.56 1025.01 1024.20 1023.88 1023.22
1024.78 1025.00 1025.20 1027.21 1027.22 1027.03 1026.71 1026.62 1026.51 1026.34 1026.53 1026.42 1026.45 1026.91 1027.37 1027.47 1027.70 1027.87 1028.12 1028.24 1028.30 1028.75 1029.27 1029.91 1030.84 1032.05 1031.84 1031.02 1030.39 1029.05 1026.70 1026.50 1026.45 1026.47 1026.69 1026.64 1026.38 1026.41 1026.23 1025.91 1025.44 1024.82 1024.38 1023.77 1023.02
Wind_Speed
12 13 14 15 15 14 13 13 13 12 11 9 8 8 8 8 6 6 5 5 7 13 9 5 0 2 3 3 3 3 5 2 3 5 1 4 1 2 1 4 1 1 3 3 11
12 14 15 14 14 15 14 14 13 12 11 9 7 7 6 5 3 7 3 12 11 10 5 6 3 3 4 2 3 5 4 7 0 1 0 3 1 2 0 1 2 1 3 5 12
12 14 14 14 15 15 14 14 13 12 11 7 5 6 5 1 2 2 10 14 11 5 1 0 1 1 3 2 2 2 5 3 1 1 0 2 1 4 2 5 6 6 5 8 8
12 12 13 14 14 15 16 15 13 12 9 5 4 5 5 1 1 3 14 13 9 1 0 1 2 3 3 2 1 1 1 1 1 2 1 1 4 4 4 3 1 4 6 10 13
10 11 12 13 14 15 16 15 13 9 5 3 4 4 2 4 1 5 13 10 3 1 4 2 3 2 4 4 2 2 1 2 1 2 1 4 4 4 8 8 3 3 7 12 10
9 10 11 12 14 15 15 15 12 7 3 3 4 3 1 2 3 6 8 4 4 4 3 6 2 2 5 3 2 1 2 1 3 3 3 3 3 4 3 2 4 6 8 9 10
9 10 11 13 15 16 15 14 10 5 3 3 3 2 6 2 3 6 7 3 3 2 3 2 0 3 2 3 0 3 1 0 2 2 2 2 4 8 6 3 3 7 7 7 9
9 10 11 13 15 16 16 13 5 4 3 2 2 3 2 2 1 5 7 2 6 3 3 0 3 6 4 2 5 4 4 3 2 6 2 2 8 2 1 2 7 6 7 8 10
8 9 11 13 14 14 16 7 3 2 2 2 2 2 1 5 4 5 4 3 5 2 4 2 6 4 5 4 5 8 1 1 2 5 4 3 7 3 2 2 7 7 7 7 8
8 9 11 12 13 14 12 3 5 3 5 2 3 4 6 4 5 5 4 3 4 2 4 8 6 4 5 6 3 2 3 2 3 6 5 4 14 14 7 8 10 9 8 8 9
7 8 11 11 12 14 6 3 5 4 10 4 2 0 2 7 3 7 4 4 4 8 4 5 8 3 1 1 1 2 1 2 2 4 5 3 10 19 7 7 9 8 8 9 10
6 8 11 11 10 7 4 6 2 2 5 3 1 1 1 1 3 9 5 5 7 4 5 8 4 3 1 4 3 4 2 4 4 4 3 6 18 18 7 5 5 5 7 8 6
5 7 11 10 1 6 4 3 2 2 5 2 1 2 4 3 2 8 6 3 6 6 5 6 1 4 3 6 5 4 3 3 3 8 3 8 9 7 4 4 3 2 4 5 6
4 7 9 6 4 1 3 3 2 2 7 5 4 4 3 1 5 2 3 3 6 4 3 6 4 3 5 4 3 2 2 2 3 5 3 6 7 9 5 9 5 6 4 5 1
4 5 7 4 5 3 1 3 1 3 4 3 4 2 4 5 3 7 3 5 4 2 6 3 4 6 7 2 2 1 3 2 3 4 4 7 5 12 4 6 6 6 5 4 2
7 5 4 4 4 1 2 2 3 9 6 3 3 5 5 7 5 6 5 8 4 4 6 2 1 4 1 2 3 2 3 5 4 4 4 4 4 9 4 3 5 4 5 5 4
9 14 6 2 1 2 2 3 7 5 4 5 3 4 3 6 5 8 5 7 3 6 6 5 3 3 4 1 2 6 7 5 8 7 5 1 2 13 7 6 4 8 9 7 5
7 7 6 3 2 1 3 7 4 2 5 1 3 3 4 6 3 7 3 3 5 5 4 5 8 5 7 4 2 4 6 7 5 2 7 2 6 9 4 6 6 5 7 6 6
4 2 3 5 2 2 6 5 7 6 3 6 3 6 5 3 1 4 4 2 1 3 7 4 4 1 4 3 3 2 4 2 8 2 5 3 9 13 4 6 8 6 7 8 7
2 2 2 6 1 4 7 4 2 2 1 2 4 3 3 4 2 5 2 2 3 2 1 4 4 1 3 3 5 5 2 5 5 2 5 7 6 7 8 9 10 10 10 9 8
3 3 2 4 3 7 4 5 3 4 2 2 4 4 2 2 1 0 2 2 1 2 5 5 5 6 1 2 6 3 3 5 4 4 6 3 9 9 8 3 6 9 8 7 8
2 2 3 1 6 2 3 5 2 1 1 2 4 4 5 5 2 0 3 5 1 5 3 1 5 2 8 1 2 3 6 4 6 7 3 3 12 2 7 5 4 9 8 6 6
2 1 3 3 4 1 1 2 0 1 0 1 2 1 2 4 2 3 2 2 3 2 6 6 2 5 9 5 4 3 4 4 3 2 7 4 9 2 3 4 5 6 11 14 16
4 3 5 5 1 7 5 1 1 2 1 4 3 3 3 4 3 3 3 1 2 1 3 3 4 9 9 9 5 3 4 5 6 4 4 17 26 10 17 13 12 16 8 11 14
4 1 3 1 4 3 2 5 4 1 2 1 4 3 5 2 1 2 2 2 1 2 3 4 5 6 8 6 4 8 8 8 12 9 11 29 20 9 18 18 16 12 11 15 14
4 4 3 2 0 2 2 4 5 2 5 2 4 4 4 6 6 6 5 3 5 1 4 0 4 2 6 10 15 20 14 17 20 18 19 25 29 16 9 5 9 15 17 13 11
1 1 4 1 1 3 3 3 4 5 1 0 4 4 2 4 4 2 4 3 4 6 5 4 4 3 8 4 5 9 15 18 7 4 9 9 7 3 7 10 9 16 15 9 9
Wind_Direction
2 0 356 351 348 346 348 348 346 343 339 328 330 336 345 349 21 36 38 280 318 323 334 277 24 28 44 79 51 120 66 202 231 162 234 1 118 15 306 125 99 116 159 300 125
355 353 351 350 345 342 341 338 341 337 334 323 326 331 339 349 79 57 297 334 335 343 20 33 59 25 45 52 20 91 122 220 352 126 208 315 329 322 77 158 242 199 64 94 134
351 351 349 345 343 338 333 334 333 332 325 312 320 326 326 315 93 330 338 341 336 353 185 340 317 70 77 37 22 149 182 170 146 35 354 292 263 324 206 239 217 207 159 156 158
342 347 344 342 340 335 333 332 331 330 323 305 317 326 322 323 240 282 343 339 342 344 257 29 52 68 96 131 5 108 40 19 123 6 353 282 302 291 217 222 54 233 165 169 175
334 338 342 341 340 336 336 334 334 335 333 307 326 332 297 48 10 323 337 339 19 36 56 47 71 109 130 113 76 90 136 46 37 27 20 333 292 275 263 259 255 88 153 184 190
332 334 338 337 336 335 336 334 336 339 349 321 335 339 273 98 311 342 340 356 20 37 31 38 86 113 102 80 97 103 78 50 13 358 8 353 301 18 282 6 215 168 197 197 196
330 333 336 332 335 333 333 330 328 326 343 333 350 87 58 169 342 334 8 351 357 36 86 48 11 76 122 95 156 115 58 30 34 0 340 11 263 234 255 312 213 223 220 218 221
323 331 335 331 332 330 329 326 318 321 332 3 40 71 93 304 277 14 343 357 1 20 89 109 75 98 46 156 32 42 45 33 14 360 1 1 276 258 11 199 256 248 240 226 228
321 335 332 330 328 327 332 332 346 318 329 10 52 77 84 325 31 319 17 356 314 3 38 63 64 77 27 64 23 16 190 339 326 36 324 42 279 277 64 17 288 274 263 243 248
331 334 328 328 326 331 328 334 17 51 356 57 58 47 18 318 307 329 330 10 37 347 26 40 47 71 33 57 216 286 13 312 276 343 354 291 269 278 266 272 261 267 266 251 242
325 335 323 326 332 345 1 21 18 354 39 86 306 37 325 298 279 358 359 1 12 49 45 8 65 70 17 45 124 122 71 310 293 12 338 295 288 286 294 254 268 271 269 263 250
323 329 323 327 333 9 56 75 108 191 80 17 29 8 285 321 3 345 360 68 60 61 343 23 70 332 356 28 75 59 76 316 297 19 359 358 295 283 291 250 224 275 291 279 261
329 334 330 325 56 41 66 94 311 220 90 10 25 12 316 15 68 337 25 70 83 55 19 109 46 357 67 30 39 50 98 10 260 328 69 323 300 322 313 315 269 263 302 304 257
334 338 334 322 51 131 50 324 323 277 75 302 342 1 331 315 41 329 15 107 40 144 72 75 342 54 59 69 43 33 354 34 13 42 279 15 278 299 318 306 286 285 325 331 331
357 353 43 67 138 64 301 320 324 52 38 305 326 294 358 67 300 360 350 28 74 54 80 268 17 31 55 9 29 155 30 58 81 89 52 349 71 272 335 321 313 302 288 317 354
31 46 156 31 54 13 347 22 45 47 259 342 313 347 32 12 16 315 27 44 140 89 45 97 45 52 60 57 48 69 71 41 60 93 33 254 108 283 258 238 320 336 289 278 272
77 57 60 35 103 358 48 42 45 126 334 296 358 20 92 357 14 21 30 20 75 60 3 356 17 359 26 36 17 53 47 343 358 9 223 259 23 246 289 284 274 289 308 266 245
89 80 54 61 351 84 58 53 93 231 221 64 33 58 71 358 21 346 59 69 40 78 95 100 334 11 345 62 180 43 128 146 214 277 277 8 244 256 242 297 281 283 301 281 258
151 45 52 354 4 64 73 71 207 193 152 142 82 69 327 350 146 50 20 157 76 98 126 103 297 338 42 22 72 272 42 172 99 68 35 269 293 295 330 320 15 318 318 289 268
81 64 33 322 57 64 75 229 132 253 249 114 133 130 176 281 8 54 356 286 104 34 138 187 13 280 287 133 33 121 149 36 6 16 305 293 277 242 320 321 341 359 338 324 325
53 62 278 350 53 47 144 213 232 252 276 95 144 133 155 177 132 296 224 302 119 111 80 130 96 284 42 183 181 26 10 43 120 132 181 275 266 215 224 233 305 317 328 318 317
79 52 313 40 53 20 107 179 225 357 56 76 97 114 165 156 115 321 231 217 224 149 99 83 130 220 224 131 172 165 191 151 126 269 228 178 269 292 219 231 213 293 285 274 250
97 228 326 81 122 26 100 111 207 294 77 115 92 54 155 142 56 219 241 351 165 139 164 174 330 5 341 6 356 216 204 140 113 89 205 163 255 257 231 251 269 278 319 327 321
84 36 338 48 78 125 143 220 360 316 41 77 104 80 112 46 33 206 227 236 222 174 151 146 162 170 198 205 144 189 197 204 142 140 243 234 277 294 291 306 319 318 321 316 296
28 187 193 312 346 104 121 142 153 159 349 76 16 166 153 119 48 238 278 309 323 272 154 125 203 205 243 226 188 232 213 209 206 212 219 270 259 295 294 306 318 320 316 311 318
116 129 19 94 352 104 20 225 160 227 138 240 147 182 156 156 182 198 163 194 221 325 173 113 267 85 281 244 245 262 252 230 237 244 254 262 277 284 315 340 343 329 322 330 327
317 62 102 356 86 85 225 172 210 141 305 51 158 119 176 234 200 233 221 242 226 177 193 163 130 42 269 324 330 302 231 229 218 189 213 238 248 329 336 336 322 315 312 289 285